Location: Tamazert
(32.6352°N, 5.2072°W)
Time: 16:19:05
(UTC+00:00)

Transit 2A Rocket - Pass Details

Date: 11 October 2022
Orbit: 589 x 912 km, 66.7° (Epoch: 07 December)

Event Time Altitude Azimuth Distance (km) Brightness Sun altitude
Rises 04:46:06 0° 247° (WSW) 2,830 - -20.9°
Reaches altitude 10° 04:49:13 10° 271° (W) 1,914 - -20.3°
Maximum altitude 04:51:41 15° 306° (NW) 1,617 - -19.7°
Exits shadow 04:53:40 12° 336° (NNW) 1,822 6.8 -19.3°
Drops below altitude 10° 04:54:09 10° 342° (NNW) 1,923 6.9 -19.2°
Sets 04:57:18 0° 6° (N) 2,850 8.1 -18.6°
